Regional Weather Roundup
Issued by NWS Green Bay, WI

Home | Current Version | Previous Version | Graphics & Text | Print | Product List | Glossary Off
Versions: 1 2 3 4 5 6 7 8 9 10 11 12 13 14 15 16 17 18 19 20 21 22 23 24 25 26 27 28 29 30 31 32 33 34 35 36 37 38 39 40 41 42 43 44 45 46 47 48 49 50

000
ASUS43 KGRB 262159
RWRGRB

NORTH-CENTRAL AND NORTHEAST WISCONSIN REGIONAL WEATHER ROUNDUP
NATIONAL WEATHER SERVICE GREEN BAY WI
400 PM CST MON JAN 26 2015

WIZ005-009-010>012-018-019-262300-
NORTH CENTRAL WISCONSIN

CITY           SKY/WX    TMP DP  RH WIND       PRES   REMARKS
IRONWOOD       CLOUDY    21  18  86 S6        29.72R
MANITOWISH WTR NOT AVBL
ARBOR VITAE    NOT AVBL
EAGLE RIVER    NOT AVBL
LAND O LAKES   NOT AVBL
RHINELANDER    CLOUDY    19  15  84 S7        29.75R WCI  10
PHILLIPS       NOT AVBL
ANTIGO         NOT AVBL
TOMAHAWK       NOT AVBL
MERRILL        NOT AVBL
$$

WIZ013-073-262300-
NORTHEAST WISCONSIN

CITY           SKY/WX    TMP DP  RH WIND       PRES   REMARKS
IRON MOUNTAIN  CLOUDY    22  16  78 SE9       29.80S
MARINETTE      CLOUDY    25  19  80 SE7       29.86S
$$

WIZ017-030-035>037-045-262300-
CENTRAL WISCONSIN

CITY           SKY/WX    TMP DP  RH WIND       PRES   REMARKS
MEDFORD        NOT AVBL
WAUSAU         CLOUDY    21  17  84 SE7       29.76R
MOSINEE        LGT SNOW  21  19  93 SE6       29.77R
MARSHFIELD     CLOUDY    22  19  89 S9        29.76R
WISC RAPIDS    CLOUDY    22  19  89 SE7       29.80R
STEVENS POINT  NOT AVBL
WAUPACA        NOT AVBL
SHAWANO        NOT AVBL
CLINTONVILLE   NOT AVBL
$$

WIZ038-039-048-051-262300-
FOX VALLEY

CITY           SKY/WX    TMP DP  RH WIND       PRES   REMARKS
NWS GREEN BAY  LGT SNOW  26  21  81 S7        29.85S
APPLETON       LGT SNOW  25  19  80 SE8       29.83R
OSHKOSH        LGT SNOW  25  20  81 SE8       29.83R
FOND DU LAC    LGT SNOW  25  19  78 S9        29.83R
$$

WIZ022-050-052-262300-
EAST CENTRAL WISCONSIN

CITY           SKY/WX    TMP DP  RH WIND       PRES   REMARKS
STURGEON BAY   CLOUDY    25  21  86 SE8       29.88R
MANITOWOC      NOT AVBL
SHEBOYGAN      CLOUDY    26  18  71 S10       29.85R
$$

LMZ563-521-522-541>543-262300-
LAKESHORE

STATION/POSITION TIME  TEMP    WIND        PRES    VSBY  WAVE
                       AIR SEA DIR/SP/G                  HT/PER
                 (UTC) (F)     (DEG/KT/KT) (MB)    (MI)  (FT/S)
SHEBOYGAN LKSHOR 2100   26     190/ 13/ 16 1011.9F
KEWAUNEE LKSHORE 2100   27     190/ 10/ 14 1010.4R
NORTHPORT PIER   2100   25     150/ 11/ 19 1012.5R
CHAMBERS ISLAND  2100   25     140/  5/  8 1011.5S
MENOMINEE LKSHOR 2100   24     130/  6     1012.2R
$$



USA.gov is the U.S. government's official web portal to all federal, state and local government web resources and services.